国际通讯卫星 604星 (INTELSAT 604 (IS-604))

导读 | 豆包AI

INTELSAT 604是国际通信卫星组织(ITSO)于1990年6月23日发射的国际通信卫星6系列成员,由休斯空间与通信公司基于HS-389平台制造,发射质量约4330千克,设计寿命13年。配置38路C频段转发器和10路Ku频段转发器,主要承担全球跨区域商业通信中继任务,为洲际语音、数据传输及早期广播电视服务提供空间基础设施支撑,是国际通信卫星组网发展进程中的重要节点。

基本信息
目录编号:
20667
目录名称:
INTELSAT 604
国际标识:
1990-056A
轨道中心:
EARTH
卫星名称:
国际通讯卫星 604星
卫星全名:
国际通讯卫星 604星 (INTELSAT 604 (IS-604))
卫星状态:
在轨 (已飞行13069 天)
发射日期:
1990-06-23 UTC
国别 :
(ITSO)
星等 :
--
轨道信息
数据来源 国际轨道数据 AOE轨道数据
星历时间 2026-03-29T00:58:23+0800
6天前
查看轨道信息
2026-03-30T04:00:00+0800
5天前
查看轨道信息
半长轴 42688.248km 42688.855km
偏心率 0.0007471 0.0007356
轨道倾角 14.566° 14.566°
近地点辐角 314.198° 314.940°
升交点赤经 10.557° 10.549°
平近点角 215.988° 254.302°
近地点 36278.218km 36279.316km
远地点 36342.004km 36342.12km
周期 1462.926分钟 1462.957分钟
每日圈数 0.984329 0.984308
详细信息
卫星平台:
Intelsat VA
平衡模式:
三轴稳定
覆盖范围:
全球
运营商:
国际卫星通信公司
运营商所在国:
美国
制造商(研发单位):
休斯公司
制造商所在国:
美国
使用方式:
暂无
卫星简介
从1965年4月至1984年3月,国际通信卫星组织发射了5代、6种不同性能的卫星共计35颗,除6颗卫星因运载火箭和远地点发动机故障而发射失败外,其余29颗卫星均被送到了预定的静止轨道位置。1984年8月前后,国际通信卫星组织利用部署在大西洋、太平洋、印度洋上空的15颗国际通信卫星,为遍布世界各地170多个国家或地区提供电话、电传、电报、电视和数据传输等电信业务;该卫星已退役。
2D轨道图
3D轨道图
轨道高度分析图
轨道倾角分析图
轨道综合分析图
查看轨道综合分析图